Find Starlink 30586

NORAD ID: 58084 Int'l Des: 2023-160 Owner: SPXS Country: US Constellation: starlink operational
LEOCIRCULAR

当前视图

正在加载3D地球...

About Starlink 30586

Starlink 30586 (NORAD 58084) is a starlink constellation satellite (v2 mini) launched Oct 18, 2023 by SPXS of US. It operates in LEO, CIRCULAR orbit with a mass of 730.00 kg.

即将过境

Passes for default location (London). Set your location on the main map for personalized predictions.

高度历史

Loading altitude history...

两行轨道根数

1 58084U 23160K 26248.42361374 -.00001957 00000-0 -61592-4 0 9990
2 58084 43.0002 146.2633 0001216 268.0028 92.0684 15.27582533160396
Epoch: Sep 5, 2026 • Age: 11 hours

当前状态

高度 484.3 km
远地点 / 近地点 N/A
速度 7.63 km/s
星下点 30.66°N, 122.57°W
发射日期 Oct 18, 2023
运行时间 2.8 years
类型 internet

技术详情

分类 Payload
质量 730.00 kg
干质量 700.00 kg
总质量 730.00 kg
长度 0.30 m
直径 4.10 m
跨度 29.00 m
形状 Box + pan
制造商 SPXS
平台类型 Starlink V2M
阶段状态 In Orbit
所有者/国家 SPXS/US

Most Searched